Agua de Enmedio, Mexico

1:29 PM MST on December 02, 2016 (GMT -0700)
Agua de Enmedio

Weather History for 76405 - November, 2012

Change the Weather History Date:

Friday, November 2, 2012

  Actual Average Record
Temperature  
Mean Temperature 80 °F -  
Max Temperature 92 °F - - ()
Min Temperature 67 °F - - ()
Cooling Degree Days 14    
Growing Degree Days 30 (Base 50)    
Moisture  
Dew Point 58 °F    
Average Humidity 53    
Maximum Humidity 94    
Minimum Humidity 15    
Precipitation  
Precipitation 0.00 in - - ()
Sea Level Pressure  
Sea Level Pressure 29.93 in    
Wind  
Wind Speed 4 mph ()    
Max Wind Speed 12 mph    
Max Gust Speed -    
Visibility 11.4 miles    
Events      
T = Trace of Precipitation, MM = Missing Value Source: Averaged Metar Reports

Daily Weather History Graph

Daily Weather History Graph

Search for Another Location

Airport or City:

Trip Planner

Search our weather history database for the weather conditions in past years. The results will help you decide how hot, cold, wet, or windy it might be!

Date:

Astronomy

Nov. 02, 2012 Rise Set
Actual Time 6:28 AM MST 5:40 PM MST
Civil Twilight 6:05 AM MST 6:04 PM MST
Nautical Twilight 5:38 AM MST 6:31 PM MST
Astronomical Twilight 5:11 AM MST 6:57 PM MST
Moon 8:43 PM MST 9:38 AM MST
Length of Visible Light 11h 59m
Length of Day
11h 12m
Waning Gibbous, 86% of the Moon is Illuminated
Nov 2
Waning Gibbous
Nov 6
Last Quarter
Nov 13
New
Nov 20
First Quarter
Nov 28
Full

Hourly Weather History & Observations

Time (MST) Temp. Heat Index Dew Point Humidity Pressure Visibility Wind Dir Wind Speed Gust Speed Precip Events Conditions
1:50 AM 72 °F - 67 °F 81% 29.93 in 2 mi Calm Calm - -  
5:40 AM 64.4 °F - 62.6 °F 94% 29.92 in 10.0 mi South 5.8 mph - N/A   Clear
6:40 AM 64.4 °F - 60.8 °F 88% 29.93 in 8.0 mi South 4.6 mph - N/A   Clear
7:40 AM 71 °F - 67 °F 82% 29.96 in 16 mi Calm Calm - -  
7:44 AM 68.0 °F - 64.4 °F 88% 30.01 in 10.0 mi South 3.5 mph - N/A   Clear
8:41 AM 77.0 °F - 64.4 °F 65% 29.97 in 10.0 mi SSE 4.6 mph - N/A   Clear
9:42 AM 82.4 °F 82.0 °F 57.2 °F 42% 29.97 in 12.0 mi West 3.5 mph - N/A   Scattered Clouds
10:43 AM 86.0 °F 84.2 °F 53.6 °F 33% 30.01 in 12.0 mi NNE 4.6 mph - N/A   Scattered Clouds
10:50 AM 88 °F - 59 °F 28% 29.96 in 19 mi WSW 2.2 mph - -   Clear
11:42 AM 86.0 °F - 51.8 °F 31% 29.94 in 15.0 mi North 4.6 mph - N/A   Scattered Clouds
12:43 PM 86.0 °F - 41.0 °F 20% 29.90 in 15.0 mi NNW 10.4 mph - N/A   Scattered Clouds
1:47 PM 87.8 °F - 41.0 °F 19% 29.93 in 15.0 mi North 9.2 mph - N/A   Partly Cloudy
1:50 PM 91 °F - 51 °F 17% 29.87 in 19 mi NW 6.7 mph - -   Scattered Clouds
2:46 PM 87.8 °F - 33.8 °F 15% 29.86 in 15.0 mi North 9.2 mph - N/A   Partly Cloudy
3:41 PM 87.8 °F - 37.4 °F 17% 29.85 in 15.0 mi North 11.5 mph - N/A   Partly Cloudy
4:47 PM 86.0 °F 84.5 °F 55.4 °F 35% 29.99 in 10.0 mi North 9.2 mph - N/A   Partly Cloudy
4:50 PM 88 °F - 65 °F 36% 29.86 in 19 mi NW 4.5 mph - -  
5:43 PM 80.6 °F 81.5 °F 60.8 °F 51% 29.87 in 10.0 mi North 5.8 mph - N/A   Partly Cloudy
6:47 PM 78.8 °F - 62.6 °F 57% 29.88 in 10.0 mi WSW 5.8 mph - N/A   Partly Cloudy
7:45 PM 75.2 °F - 60.8 °F 61% 30.01 in 10.0 mi South 9.2 mph - N/A   Clear
7:50 PM 80 °F - 69 °F 60% 29.90 in 2 mi Calm Calm - -  
8:41 PM 71.6 °F - 64.4 °F 78% 29.92 in 10.0 mi South 5.8 mph - N/A   Clear
9:48 PM 71.6 °F - 64.4 °F 78% 29.92 in 10.0 mi South 5.8 mph - N/A   Clear
10:46 PM 68.0 °F - 64.4 °F 88% 30.04 in 10.0 mi SSW 5.8 mph - N/A   Clear
10:50 PM 76 °F - 69 °F 72% 29.89 in 2 mi South 4.5 mph - -